Погода Ермаковское

Погода Ермаковское : погода сейчас, прогноз погоды и архив. Всё, что Вы хотите узнать о погоде Ермаковское!

Хотите узнать прогноз погоды Ермаковское? Тогда Вам сюда: Погода Ермаковское

Поиск расширенной информации на нашем сайте:

Другие новости

Новости СМИ2

Главная страница сайта

Новости сайта

03.07.2017

Напоминаем, что на нашем специализированном сайте Метеоцентр.Азия вы можете получить высокодетализированные автоматические прогнозы погоды по пунктам России, СНГ и мира в авиационном формате (включающие направление и скорость ветра, видимость, явления погоды, количество и форму облачности, нижнюю и верхнюю границу облачности).

Рекомендуем: минск-вильнюс расписание автобусов

Погода Ермаковское - сегодня

Время (UTC), дата Ветер
(°,м/с) 
Видим.   Явления Облачность Т
(°С)
Тd
(°С)
f(%) Тe
(°С)
Pmin
(гПа)
dP
(гПа)
Po
(мм)
O2
(г/м3)
Тmin Tmax R s Состояние
почвы
03 19.11.17 тихо ()   10 км    9/5 1000 м средняя, верхняя 
[Sc|Ac cast|Cc]
-12.7 -14.7 85 -13  1027.3  0.2  741  314           
06 19.11.17 100 (В) 20000 м    10/0 средняя 
[Ac As]
-8.7 -11.6 79 -8  1026.9  0.4  741  310           
09 19.11.17 тихо ()   20000 м    10/0 средняя 
[Ac As]
-6.3 -10.8 70 -6  1026.6  741  307           
12 19.11.17 тихо ()   н/о    10/0 средняя 
[Ac As]
-7.2 -8.9 88 -7  1027.7  0.9  742  308    -5.8       
15 19.11.17 тихо ()   н/о    10/0 средняя 
[Ac As]
-6.3 -8.2 86 -6  1027.7  0.2  742  307           
18 19.11.17 140 (ЮВ) н/о    9/0 средняя 
[Ac As]
-7.1 -8.4 90 -7  1027.8  -0.1  742  308           
21 19.11.17 250 (З) н/о    9/0 средняя 
[Ac As]
-2.8 -5.8 80 -5  1027.7  0.7  742  303           
00 20.11.17 270 (З) 8-17{17}  н/о  метель  9/9 1000 м 
[Sc]
-1.8 -8.8 59 -6  1030.8  2.9  745  303  -8.3      равномерный
мокрый или
старый снег
100% 
03 20.11.17 250 (З) 4{17}  20000 м    10/8 600 м кучево-дожд., средняя 
[Cb cap|Ac As]
-2.2 -12.4 45 -5  1031.9  745  304           
06 20.11.17 240 (ЮЗ) 4{11}  10 км    10/10 600 м кучево-дожд. 
[Cb cap]
-1.4 -10.9 48 -4  1032.3  0.6  746  303           
09 20.11.17 240 (ЮЗ) 10 км  {ливн. осадки}  10/10 600 м кучево-дожд. 
[Cb cap]
-1.3 -10.5 50 -3  1031.9  -0.4  746  303           
12 20.11.17 230 (ЮЗ) н/о  {ливн. осадки}  9/9 600 м кучево-дожд. 
[Cb cap]
-2 -9.5 56 -3  1033.4  1.3  746  304    -1.3  0.0     
15 20.11.17 240 (ЮЗ) н/о    10/10 1000 м 
[St]
-1.8 -8.8 59 -4  1034.1  0.7  747  304           
18 20.11.17 250 (З) н/о    10/10 1000 м 
[St]
-2 -8.6 61 -5  1034.5  0.4  747  304           
21 20.11.17 240 (ЮЗ) н/о  слаб. снег  10/10 1000 м 
[St]
-2.8 -6.7 74 -5  1035.1  0.5  748  305           
00 21.11.17 260 (З) н/о  {снег}  10/10 1000 м 
[St]
-2.3 -8.6 62 -3  1035.3  0.2  748  305  -2.9    0.4  равномерный
сухой снег
100% 
03 21.11.17 тихо ()   10 км    10/10 1000 м 
[Sc]
-2 -8.6 61 -2  1035.8  0.5  748  305           
06 21.11.17 240 (ЮЗ) 10 км  слаб. снег  10/10 1000 м 
[Sc]
-1.5 -5.9 72 -4  1035.6  748  304           
09 21.11.17 250 (З) 10 км  слаб. снег  10/10 1000 м 
[Sc]
-1.4 -6.1 70 -4  1035  -0.6  748  303           
12 21.11.17 230 (ЮЗ) н/о  {снег}  10/10 1000 м 
[Sc]
-2 -8.6 61 -1  1035.8  0.6  748  305    -1.4  0.4     
15 21.11.17 230 (ЮЗ) н/о    6/0 верхняя 
[Ci fib]
-2.8 -8.8 63 -2  1035.9  748  305           
18 21.11.17 тихо ()   н/о    10/0 
[Sc]
-6.6 -9 83 -7  1036.4  748  310           
21 21.11.17 230 (ЮЗ) н/о    10/0 
[Sc]
-2 -9.5 56 -3  1033.7  -2  747  304           
00 22.11.17 240 (ЮЗ) н/о  ливневой снег  10/10 600 м кучево-дожд. 
[Cb cap]
-2.7 -4.7 86 -4  1031.9  -1.8  745  304  -6.6    0.5  10  равномерный
сухой снег
100% 
03 22.11.17 240 (ЮЗ) 0500 м  ливневой снег  10/10 600 м кучево-дожд. 
[Cb cap]
-2.3 -3.2 94 -5  1028.8  -3  743  302           
Время (UTC), дата Ветер
(°,м/с) 
Видим.   Явления Облачность Т
(°С)
Тd
(°С)
f(%) Тe
(°С)
Pmin
(гПа)
dP
(гПа)
Po
(мм)
O2
(г/м3)
Тmin Tmax R s Состояние
почвы

Для получения пояснительной информации подведите курсор к названию столбца.

ПОГОДА Ермаковское - архив

Всё, что Вы хотите узнать о погоде Ермаковское - удобно и подробно!

Выберите нужную дату (начиная с 1 января 2015* года) и нажмите кнопку "Найти".
Будут отображены архивные сводки погоды по пункту Ермаковское, начиная с указанной даты.


Отображать данные в формате CSV (для использования в таблицах Excel)


Внимание! Наш архив погоды предназначен исключительно для личного некоммерческого использования в познавательных целях. Если Вам необходимы официальные справки о состоянии погоды (для производственных, юридических, коммерческих и т.п. целей), обращайтесь в органы Росгидромета.

*Примечание: данная дата относится к архиву по метеостанциям СССР (Россия, СНГ, Балтия).
Архив по метеостанциям Зарубежной Европы и Азии (кроме Китая) хранится 10 дней, по другим регионам земного шара (Китай, Африка, Америка, Австралия, Океания) - 1 день.

Ермаковское - район местоположения метеостанции


Название, широта, долгота, высота метеостанции:
Ермаковское 53.3°ш. 92.4°д. 298 м над ур. моря [Российская Федерация]

Дополнительная информация

В oтличие oт бoльшинства пoгoдных сайтoв мы публикуем пoдрoбную метеoинфoрмацию в детальнoм прoфессиoнальнoм фoрмате.

Характеристики температуры и влажнoсти вoздуха измеряются на высoте 2 м в тени вдали oт зданий и деревьев.
Скoрoсть ветра измеряется на высoте 10 м (на урoвне рoста челoвека скoрoсть ветра ниже в 1.5-2 раза). Если метеoстанция нахoдится в гoрoде или в лесу, тo скoрoсть ветра занижена на 2-4 м/с пo сравнению с oткрытым местoм. Скoрoсть ветра над акватoриями крупных рек и oзёр, а также на вершинах хoлмoв на 2-5 м/с выше, чем в oбычных услoвиях.
Атмoсфернoе давление в разных тoчках местнoсти мoжет значительнo oтличаться oт давления на метеoстанции, в зависимoсти oт услoвий рельефа (при пoдъёме на 10 м давление пoнижается примернo на 1 мм рт.ст.).